Simultaneous Nadir Overpasses (SNOs) Predictions

Prediction of SNOs between GOES-14 and AQUA Satellite Orbit:

Table of predicted SNOs for the next 14.0 days since TLE Epoch: 8/20/2022
Index Date Time (GOES-14) GOES-14 Lat,Lon AQUA Lat,Lon Distance(km) Time Diff (sec)
1 08/20/2022 08:52:32 -0.48,-104.44 0.22,-107.78 379.99 80
2 08/22/2022 08:39:52 -0.48,-104.43 -0.45,-104.70 30.51 80
3 08/24/2022 08:24:31 -0.49,-104.42 -1.07,-101.61 319.08 80
4 08/24/2022 20:45:49 0.50,-104.62 0.04,-106.79 246.12 80
5 08/26/2022 20:35:48 0.50,-104.62 0.69,-103.70 104.41 80
6 08/27/2022 08:56:55 -0.50,-104.45 0.45,-108.81 497.02 80
7 08/28/2022 20:23:07 0.50,-104.62 1.34,-100.61 455.45 80
8 08/29/2022 08:44:14 -0.51,-104.44 -0.20,-105.73 146.64 80
9 08/31/2022 08:28:53 -0.51,-104.44 -0.87,-102.64 203.71 80
10 08/31/2022 20:50:10 0.51,-104.59 -0.19,-107.81 365.41 80
11 09/02/2022 20:37:29 0.51,-104.59 0.50,-104.72 14.76 80
